Location: Finnegan
(51.1333°N, 112.0833°W)
Time: 03:10:54
(UTC+00:00)

ISS - Visible Passes

Search period start: 27 November 2022 00:00
Search period end: 07 December 2022 00:00
Orbit: 411 x 421 km, 51.6° (Epoch: 27 November)

Date Brightness Start Highest point End Pass type
(mag) Time Alt. Az. Time Alt. Az. Time Alt. Az.
27 Nov -3.9 01:23:39 10° W 01:27:00 80° N 01:27:29 62° ENE visible
28 Nov -3.8 00:35:01 10° W 00:38:21 87° NNW 00:40:46 17° E visible
28 Nov -1.9 02:11:48 10° W 02:13:39 31° W 02:13:39 31° W visible
29 Nov -3.9 01:23:08 10° W 01:26:29 83° N 01:26:57 63° E visible
30 Nov -3.8 00:34:26 10° W 00:37:47 79° N 00:40:16 17° E visible
30 Nov -1.9 02:11:13 10° W 02:13:09 31° W 02:13:09 31° W visible
01 Dec -3.8 01:22:30 10° W 01:25:50 75° SSW 01:26:30 53° SE visible
02 Dec -3.8 00:33:46 10° W 00:37:07 89° S 00:39:54 14° ESE visible
02 Dec -1.8 02:10:37 10° W 02:12:48 28° WSW 02:12:48 28° WSW visible
03 Dec -2.9 01:21:47 10° W 01:24:59 45° SSW 01:26:17 28° SSE visible
04 Dec -3.3 00:32:58 10° W 00:36:17 61° SSW 00:39:34 10° ESE visible
04 Dec -1.2 02:10:17 10° W 02:12:32 17° SW 02:12:50 17° SSW visible
05 Dec -1.6 01:21:09 10° W 01:23:55 25° SSW 01:26:39 10° SSE visible
06 Dec -2.1 00:32:10 10° W 00:35:14 35° SSW 00:38:18 10° SE visible
